Weather History for MROC - July, 2013

Change the Weather History Date:

Tuesday, July 16, 2013

  Actual Average Record
Temperature  
Mean Temperature 76 °F -  
Max Temperature 85 °F 80 °F 86 °F (2008)
Min Temperature 67 °F 64 °F 64 °F (1996)
Cooling Degree Days 11    
Growing Degree Days 26 (Base 50)    
Moisture  
Dew Point 61 °F    
Average Humidity 61    
Maximum Humidity 78    
Minimum Humidity 40    
Precipitation  
Precipitation 0.00 in 0.31 in - ()
Sea Level Pressure  
Sea Level Pressure 29.92 in    
Wind  
Wind Speed 9 mph ()    
Max Wind Speed 29 mph    
Max Gust Speed 26 mph    
Visibility 8.2 miles    
Events      
Averages and records for this station are not official NWS values.
T = Trace of Precipitation, MM = Missing Value Source: Averaged Metar Reports

Daily Weather History Graph

Daily Weather History Graph

Search for Another Location

Airport or City:

Trip Planner

Search our weather history database for the weather conditions in past years. The results will help you decide how hot, cold, wet, or windy it might be!

Date:

Astronomy

Jul. 16, 2013 Rise Set
Actual Time 5:23 AM CST 6:02 PM CST
Civil Twilight 5:00 AM CST 6:24 PM CST
Nautical Twilight 4:34 AM CST 6:51 PM CST
Astronomical Twilight 4:07 AM CST 7:18 PM CST
Moon 12:06 PM CST (7/16) No Moon Set
Length of Visible Light 13h 24m
Length of Day
12h 38m
First Quarter, 57% of the Moon is Illuminated
Jul 16
First Quarter
Jul 22
Full
Jul 29
Last Quarter
Aug 6
New
Aug 14
First Quarter

Hourly Weather History & Observations

Time (CST) Temp. Heat Index Dew Point Humidity Pressure Visibility Wind Dir Wind Speed Gust Speed Precip Events Conditions
12:00 AM 70 °F - 59 °F 61% 29.79 in 12 mi Calm Calm - -   Clear
12:00 AM 69.8 °F - 59.0 °F 68% 29.96 in - ENE 9.2 mph - N/A   Clear
1:00 AM 69.8 °F - 59.0 °F 68% 29.95 in - ENE 8.1 mph - N/A   Clear
2:00 AM 69.8 °F - 59.0 °F 68% 29.94 in - East 11.5 mph - N/A   Clear
3:00 AM 68 °F - 59 °F 67% 29.79 in 12 mi ENE 11.2 mph - -   Clear
3:00 AM 68.0 °F - 59.0 °F 73% 29.93 in - ENE 5.8 mph - N/A   Clear
4:00 AM 69.8 °F - 59.0 °F 68% 29.92 in - ENE 10.4 mph - N/A   Clear
5:00 AM 69.8 °F - 59.0 °F 68% 29.92 in - East 9.2 mph - N/A   Clear
6:00 AM 68 °F - 60 °F 68% 29.82 in 12 mi NNE 13.4 mph - -   Clear
6:00 AM 68.0 °F - 59.0 °F 73% 29.94 in - NNE 6.9 mph - N/A   Clear
7:00 AM 73.4 °F - 60.8 °F 65% 29.96 in 6.2 mi ESE 12.7 mph 24.2 mph N/A   Scattered Clouds
8:00 AM 75.2 °F - 60.8 °F 61% 29.98 in 6.2 mi ESE 13.8 mph 26.5 mph N/A   Scattered Clouds
9:00 AM 75.2 °F - 60.8 °F 61% 30.00 in 6.2 mi East 13.8 mph 25.3 mph N/A   Scattered Clouds
10:00 AM 80.6 °F 81.8 °F 62.6 °F 54% 30.00 in 6.2 mi East 19.6 mph - N/A   Mostly Cloudy
11:00 AM 80.6 °F 81.5 °F 60.8 °F 51% 29.98 in 6.2 mi East 18.4 mph - N/A   Mostly Cloudy
12:00 PM 82 °F - 62 °F 40% 29.80 in 12 mi East 29.1 mph - -   Scattered Clouds
12:00 PM 82.4 °F 83.4 °F 62.6 °F 51% 29.96 in 6.2 mi East 15.0 mph - N/A   Mostly Cloudy
1:00 PM 84.2 °F 83.8 °F 59.0 °F 42% 29.95 in 6.2 mi ESE 15.0 mph - N/A   Mostly Cloudy
2:00 PM 82.4 °F 82.5 °F 59.0 °F 45% 29.92 in 6.2 mi East 11.5 mph - N/A   Mostly Cloudy
3:00 PM 81 °F - 62 °F 43% 29.76 in 12 mi South 15.7 mph - -   Overcast
3:00 PM 80.6 °F 81.8 °F 62.6 °F 54% 29.91 in 6.2 mi South 8.1 mph - N/A   Mostly Cloudy
4:00 PM 80.6 °F 81.5 °F 60.8 °F 51% 29.91 in 6.2 mi SE 6.9 mph - N/A   Mostly Cloudy
5:00 PM 77.0 °F - 66.2 °F 69% 29.91 in 6.2 mi WSW 5.8 mph - N/A   Mostly Cloudy
6:00 PM 76 °F - 59 °F 46% 29.77 in 12 mi SSW 8.9 mph - -   Scattered Clouds
6:00 PM 77.0 °F - 59.0 °F 54% 29.94 in 6.2 mi SSW 4.6 mph - N/A   Mostly Cloudy
7:00 PM 73.4 °F - 66.2 °F 78% 29.99 in 6.2 mi South 2.3 mph - N/A   Scattered Clouds
8:00 PM 73.4 °F - 62.6 °F 69% 30.00 in - ESE 3.5 mph - N/A   Clear
9:00 PM 71 °F - 62 °F 64% 29.85 in 12 mi East 4.6 mph - -   Clear
9:00 PM 71.6 °F - 62.6 °F 73% 30.02 in - East 4.6 mph - N/A   Clear
10:00 PM 71.6 °F - 60.8 °F 69% 30.01 in - ENE 6.9 mph - N/A   Clear
11:00 PM 69.8 °F - 60.8 °F 73% 30.01 in - ENE 4.6 mph - N/A   Clear